• In Czech Republic
  • List of Countries
  • For 7 days
  • Water Temperature
  • Satellite Maps
  • Weather Map
  • Weather Widgets
  • user-avatar
    Login

    Hourly Weather Taldy Kurgan

    Today, 19 January, Friday

    Time Temperature Precipitation Wind Pressure Humidity
    00:00 -8°C° 0 mm 2 mps 719 mmHg 63%
    01:00 -8°C° 0 mm 2 mps 719 mmHg 62%
    02:00 -8°C° 0 mm 2 mps 719 mmHg 61%
    03:00 -8°C° 0 mm 2 mps 719 mmHg 61%
    04:00 -8°C° 0 mm 2 mps 719 mmHg 60%
    05:00 -9°C° 0 mm 2 mps 718 mmHg 63%
    06:00 -8°C° 0 mm 2 mps 719 mmHg 61%
    07:00 -8°C° 0 mm 2 mps 719 mmHg 60%
    08:00 -8°C° 0 mm 2 mps 719 mmHg 59%
    09:00 -4°C° 0 mm 1 mps 719 mmHg 61%
    10:00 -3°C° 0 mm 1 mps 719 mmHg 64%
    11:00 -1°C° 0 mm 1 mps 719 mmHg 66%
    12:00 -1°C° 0 mm 1 mps 719 mmHg 69%
    13:00 -1°C° 0 mm 1 mps 719 mmHg 71%
    14:00 0°C° 0 mm 1 mps 719 mmHg 73%
    15:00 -2°C° 0 mm 1 mps 720 mmHg 71%
    16:00 -3°C° 0 mm 1 mps 720 mmHg 69%
    17:00 -4°C° 0 mm 1 mps 720 mmHg 67%
    18:00 -4°C° 0 mm 1 mps 720 mmHg 65%
    19:00 -4°C° 0 mm 1 mps 720 mmHg 63%
    20:00 -6°C° 0 mm 2 mps 721 mmHg 61%
    21:00 -6°C° 0 mm 2 mps 721 mmHg 61%
    22:00 -5°C° 0 mm 2 mps 721 mmHg 61%
    23:00 -3°C° 0 mm 1 mps 721 mmHg 61%

    Tomorrow, 20 January, Saturday

    Time Temperature Precipitation Wind Pressure Humidity
    00:00 -3°C° 0 mm 1 mps 721 mmHg 63%
    01:00 -2°C° 0 mm 1 mps 721 mmHg 64%
    02:00 -2°C° 0 mm 1 mps 721 mmHg 65%
    03:00 -2°C° 0 mm 1 mps 721 mmHg 66%
    04:00 -4°C° 0 mm 2 mps 721 mmHg 66%
    05:00 -5°C° 0 mm 2 mps 721 mmHg 67%
    06:00 -5°C° 0 mm 2 mps 721 mmHg 68%
    07:00 -5°C° 0 mm 2 mps 722 mmHg 68%
    08:00 -5°C° 0 mm 2 mps 722 mmHg 68%
    09:00 -3°C° 0 mm 2 mps 722 mmHg 71%
    10:00 -2°C° 0 mm 2 mps 722 mmHg 73%
    11:00 -1°C° 0 mm 2 mps 722 mmHg 76%
    12:00 -1°C° 0 mm 2 mps 722 mmHg 77%
    13:00 +1°C° 0 mm 2 mps 721 mmHg 78%
    14:00 +1°C° 0 mm 2 mps 721 mmHg 79%
    15:00 -1°C° 0 mm 2 mps 721 mmHg 78%
    16:00 -2°C° 0 mm 2 mps 721 mmHg 77%
    17:00 -2°C° 0 mm 2 mps 721 mmHg 75%
    18:00 -3°C° 0 mm 2 mps 720 mmHg 75%
    19:00 -3°C° 0 mm 2 mps 720 mmHg 74%
    20:00 -3°C° 0 mm 2 mps 720 mmHg 73%
    21:00 -3°C° 0 mm 2 mps 720 mmHg 73%
    22:00 -3°C° 0 mm 2 mps 720 mmHg 72%
    23:00 -5°C° 0 mm 3 mps 719 mmHg 72%

    Day after tomorrow, 21 January, Sunday

    Time Temperature Precipitation Wind Pressure Humidity
    00:00 -5°C° 0 mm 3 mps 719 mmHg 72%
    01:00 -5°C° 0 mm 3 mps 719 mmHg 71%
    02:00 -6°C° 0 mm 3 mps 719 mmHg 71%
    03:00 -6°C° 0 mm 3 mps 718 mmHg 71%
    04:00 -6°C° 0 mm 3 mps 718 mmHg 71%
    05:00 -6°C° 0 mm 3 mps 718 mmHg 71%
    06:00 -6°C° 0 mm 3 mps 718 mmHg 70%
    07:00 -6°C° 0 mm 3 mps 718 mmHg 70%
    08:00 -6°C° 0 mm 3 mps 718 mmHg 70%
    09:00 -5°C° 0 mm 3 mps 718 mmHg 72%
    10:00 -4°C° 0 mm 3 mps 718 mmHg 74%
    11:00 -2°C° 0 mm 3 mps 718 mmHg 76%
    12:00 -2°C° 0 mm 3 mps 718 mmHg 77%
    13:00 -2°C° 0 mm 3 mps 717 mmHg 78%
    14:00 -2°C° 0 mm 3 mps 717 mmHg 80%
    15:00 -4°C° 0 mm 3 mps 717 mmHg 80%
    16:00 -5°C° 0 mm 3 mps 717 mmHg 80%
    17:00 -7°C° 0 mm 3 mps 717 mmHg 79%
    18:00 -7°C° 0 mm 3 mps 717 mmHg 78%
    19:00 -7°C° 0 mm 3 mps 717 mmHg 77%
    20:00 -8°C° 0 mm 3 mps 717 mmHg 76%
    21:00 -8°C° 0 mm 3 mps 717 mmHg 75%
    22:00 -8°C° 0 mm 3 mps 717 mmHg 74%
    23:00 -9°C° 0 mm 3 mps 717 mmHg 74%

    22 January, Monday

    Time Temperature Precipitation Wind Pressure Humidity
    00:00 -9°C° 0 mm 3 mps 717 mmHg 73%
    01:00 -9°C° 0 mm 3 mps 717 mmHg 73%
    02:00 -9°C° 0 mm 3 mps 717 mmHg 72%
    03:00 -9°C° 0 mm 3 mps 717 mmHg 72%
    04:00 -10°C° 0 mm 3 mps 717 mmHg 72%
    05:00 -10°C° 0 mm 3 mps 717 mmHg 72%
    06:00 -10°C° 0 mm 3 mps 717 mmHg 72%
    07:00 -10°C° 0 mm 3 mps 717 mmHg 72%
    08:00 -10°C° 0 mm 3 mps 717 mmHg 72%
    09:00 -9°C° 0 mm 3 mps 717 mmHg 73%
    10:00 -8°C° 0 mm 3 mps 717 mmHg 74%
    11:00 -7°C° 0 mm 3 mps 717 mmHg 75%
    12:00 -7°C° 0 mm 3 mps 717 mmHg 77%
    13:00 -7°C° 0 mm 3 mps 717 mmHg 79%
    14:00 -7°C° 0 mm 3 mps 717 mmHg 80%
    15:00 -7°C° 0 mm 3 mps 717 mmHg 81%
    16:00 -8°C° 0 mm 3 mps 717 mmHg 82%
    17:00 -9°C° 0 mm 3 mps 717 mmHg 82%
    18:00 -9°C° 0 mm 3 mps 717 mmHg 82%
    19:00 -9°C° 0 mm 2 mps 717 mmHg 83%
    20:00 -9°C° 0 mm 2 mps 718 mmHg 83%
    21:00 -9°C° 0.1 mm 2 mps 718 mmHg 85%
    22:00 -9°C° 0.1 mm 2 mps 718 mmHg 87%
    23:00 -10°C° 0.1 mm 2 mps 718 mmHg 88%

    23 January, Tuesday

    Time Temperature Precipitation Wind Pressure Humidity
    00:00 -10°C° 0.1 mm 2 mps 718 mmHg 89%
    01:00 -12°C° 0.1 mm 2 mps 719 mmHg 90%
    02:00 -12°C° 0.1 mm 2 mps 719 mmHg 91%
    03:00 -13°C° 0 mm 2 mps 719 mmHg 91%
    04:00 -14°C° 0 mm 2 mps 719 mmHg 92%
    05:00 -14°C° 0 mm 2 mps 720 mmHg 92%
    06:00 -15°C° 0 mm 2 mps 720 mmHg 91%
    07:00 -15°C° 0 mm 2 mps 720 mmHg 90%
    08:00 -15°C° 0 mm 2 mps 721 mmHg 90%
    09:00 -15°C° 0 mm 2 mps 721 mmHg 89%
    10:00 -14°C° 0 mm 2 mps 721 mmHg 88%
    11:00 -14°C° 0 mm 3 mps 721 mmHg 87%
    12:00 -14°C° 0 mm 3 mps 721 mmHg 87%
    13:00 -14°C° 0 mm 3 mps 721 mmHg 87%
    14:00 -14°C° 0 mm 3 mps 720 mmHg 88%
    15:00 -15°C° 0 mm 3 mps 720 mmHg 89%
    16:00 -17°C° 0 mm 3 mps 720 mmHg 90%
    17:00 -18°C° 0 mm 3 mps 720 mmHg 91%
    18:00 -17°C° 0 mm 2 mps 721 mmHg 91%
    19:00 -18°C° 0 mm 2 mps 721 mmHg 91%
    20:00 -18°C° 0 mm 2 mps 721 mmHg 90%
    21:00 -19°C° 0 mm 2 mps 721 mmHg 90%
    22:00 -19°C° 0 mm 2 mps 721 mmHg 90%
    23:00 -19°C° 0 mm 2 mps 721 mmHg 90%

    24 January, Wednesday

    Time Temperature Precipitation Wind Pressure Humidity
    00:00 -20°C° 0 mm 2 mps 721 mmHg 91%
    01:00 -20°C° 0 mm 2 mps 721 mmHg 91%
    02:00 -21°C° 0 mm 2 mps 721 mmHg 91%
    03:00 -21°C° 0 mm 2 mps 721 mmHg 91%
    04:00 -21°C° 0 mm 2 mps 721 mmHg 91%
    05:00 -21°C° 0 mm 2 mps 721 mmHg 91%
    06:00 -21°C° 0 mm 2 mps 721 mmHg 91%
    07:00 -21°C° 0 mm 2 mps 722 mmHg 90%
    08:00 -21°C° 0 mm 2 mps 722 mmHg 89%
    09:00 -20°C° 0 mm 2 mps 722 mmHg 88%
    10:00 -19°C° 0 mm 2 mps 722 mmHg 87%
    11:00 -18°C° 0 mm 2 mps 723 mmHg 86%
    12:00 -18°C° 0 mm 2 mps 723 mmHg 86%
    13:00 -17°C° 0 mm 2 mps 723 mmHg 87%
    14:00 -17°C° 0 mm 2 mps 723 mmHg 87%
    15:00 -18°C° 0 mm 2 mps 723 mmHg 88%
    16:00 -19°C° 0 mm 2 mps 723 mmHg 89%
    17:00 -20°C° 0 mm 2 mps 723 mmHg 90%
    18:00 -21°C° 0 mm 2 mps 723 mmHg 87%
    19:00 -21°C° 0 mm 2 mps 723 mmHg 84%
    20:00 -21°C° 0 mm 2 mps 723 mmHg 80%
    21:00 -21°C° 0 mm 2 mps 723 mmHg 79%
    22:00 -21°C° 0 mm 2 mps 723 mmHg 77%
    23:00 -23°C° 0 mm 2 mps 723 mmHg 75%
    Show more